Date,TemperatureHighF,TemperatureAvgF,TemperatureLowF,DewpointHighF,DewpointAvgF,DewpointLowF,HumidityHigh,HumidityAvg,HumidityLow,PressureMaxIn,PressureMinIn,WindSpeedMaxMPH,WindSpeedAvgMPH,GustSpeedMaxMPH,PrecipitationSumIn
2013-1-1,36,36,34,18,16,15,49,44,42,29.83,29.56,19,4,19,0.00
2013-1-2,36,36,36,16,16,16,43,43,43,29.56,29.56,2,2,19,0.00
2013-1-3,36,36,36,16,16,16,43,43,43,29.56,29.56,2,2,19,0.00
2013-1-4,36,36,36,16,16,16,43,43,43,29.56,29.56,2,2,19,0.00
2013-1-5,36,36,36,16,16,16,43,43,43,29.56,29.56,2,2,19,0.00
2013-1-6,36,36,36,16,16,16,43,43,43,29.56,29.56,2,2,19,0.00
2013-1-7,36,36,36,16,16,16,43,43,43,29.56,29.56,2,2,19,0.00
2013-1-8,36,32,0,16,14,-4,89,47,43,30.20,29.56,2,2,19,0.00
2013-1-9,36,10,2,16,5,-2,98,80,43,30.35,29.56,7,1,19,0.00
2013-1-10,17,12,9,15,9,5,93,85,75,30.24,30.05,6,0,6,0.00
2013-1-11,22,16,12,16,13,10,93,87,74,30.33,30.02,7,0,7,0.00
2013-1-12,33,25,13,25,21,12,93,85,69,30.33,29.86,13,2,13,0.00
2013-1-13,39,36,32,33,30,24,97,81,68,29.88,29.63,12,2,12,0.12
2013-1-14,41,36,25,35,32,24,97,88,74,29.93,29.32,12,2,12,0.16
2013-1-15,25,14,10,24,11,-50,95,90,88,30.37,29.93,10,1,10,0.00
2013-1-16,16,14,12,12,9,7,92,80,73,30.37,29.98,4,0,5,0.00
2013-1-17,13,5,-4,10,0,-11,87,79,72,30.32,29.94,12,2,12,0.00
2013-1-18,4,-2,-7,-8,-11,-14,74,66,53,30.62,30.32,10,1,10,0.00
2013-1-19,10,8,4,-3,-7,-10,59,50,45,30.62,30.26,18,2,18,0.00
2013-1-20,10,9,7,8,4,-5,90,81,56,30.26,30.18,8,0,8,0.00
2013-1-21,9,8,6,6,4,2,92,86,81,30.31,30.19,7,0,7,0.00
2013-1-22,15,11,8,8,5,4,82,79,71,30.19,29.89,6,0,6,0.00
2013-1-23,10,8,4,5,2,-3,81,77,72,29.90,29.76,6,0,6,0.00
2013-1-24,4,-1,-8,0,-5,-12,82,48,68,30.01,29.81,2,0,2,0.00
2013-1-25,0,-6,-13,0,-11,-22,72,34,57,30.19,30.01,6,0,6,0.00
2013-1-26,-14,-20,-24,-19,-25,-29,83,76,64,30.36,30.19,4,0,4,0.00
2013-1-27,-24,-26,-30,-28,-31,-35,79,76,74,30.82,30.36,2,0,2,0.00
2013-1-28,-3,-12,-29,-14,-20,-35,92,66,55,30.85,30.27,16,2,16,0.00
2013-1-29,-2,-5,-8,-11,-16,-20,77,60,51,30.27,30.07,13,1,13,0.00
2013-1-30,14,3,-6,8,-2,-12,82,74,74,30.14,29.87,7,1,7,0.00
2013-1-31,9,7,6,7,4,1,92,86,79,30.28,29.89,7,1,7,0.00